TimeCST,TemperatureF,Dew PointF,Humidity,Sea Level PressureIn,VisibilityMPH,Wind Direction,Wind SpeedMPH,Gust SpeedMPH,PrecipitationIn,Events,Conditions,WindDirDegrees,DateUTC
12:53 AM,55.0,51.1,86,30.20,9.0,Calm,Calm,-,N/A,,Clear,0,2013-01-24 06:53:00
1:53 AM,54.0,50.0,86,30.20,9.0,Calm,Calm,-,N/A,,Clear,0,2013-01-24 07:53:00
2:53 AM,52.0,48.0,86,30.20,7.0,Calm,Calm,-,N/A,,Clear,0,2013-01-24 08:53:00
3:53 AM,53.1,51.1,93,30.20,4.0,SW,3.5,-,N/A,,Clear,220,2013-01-24 09:53:00
4:13 AM,54.0,52.0,93,30.22,2.5,Calm,Calm,-,N/A,,Clear,0,2013-01-24 10:13:00
4:43 AM,52.0,51.1,97,30.22,2.5,SSW,3.5,-,N/A,,Partly Cloudy,200,2013-01-24 10:43:00
4:46 AM,52.0,50.0,93,30.22,1.0,SSW,3.5,-,N/A,,Mist,210,2013-01-24 10:46:00
4:53 AM,52.0,50.0,93,30.20,0.2,SW,3.5,-,N/A,Fog,Fog,220,2013-01-24 10:53:00
5:02 AM,51.1,50.0,96,30.22,0.2,SSW,4.6,-,N/A,Fog,Fog,200,2013-01-24 11:02:00
5:53 AM,53.1,52.0,96,30.20,0.2,SSW,3.5,-,N/A,Fog,Fog,210,2013-01-24 11:53:00
6:53 AM,51.1,51.1,100,30.22,0.2,SW,3.5,-,N/A,Fog,Fog,230,2013-01-24 12:53:00
7:49 AM,55.4,53.6,94,30.24,0.5,South,6.9,-,N/A,Fog,Fog,190,2013-01-24 13:49:00
7:53 AM,55.0,54.0,96,30.22,2.0,South,6.9,-,N/A,,Mostly Cloudy,180,2013-01-24 13:53:00
8:02 AM,55.9,55.0,97,30.24,3.0,South,5.8,-,N/A,,Overcast,180,2013-01-24 14:02:00
8:18 AM,57.0,55.9,96,30.25,2.5,SSW,4.6,-,N/A,,Overcast,210,2013-01-24 14:18:00
8:27 AM,57.0,55.9,96,30.25,3.0,SW,3.5,-,N/A,,Overcast,230,2013-01-24 14:27:00
8:35 AM,57.0,55.9,96,30.25,2.5,WSW,3.5,-,N/A,,Overcast,240,2013-01-24 14:35:00
8:45 AM,57.0,55.9,96,30.26,3.0,SW,4.6,-,N/A,,Overcast,230,2013-01-24 14:45:00
8:53 AM,57.9,57.0,97,30.23,3.0,SW,4.6,-,N/A,,Overcast,230,2013-01-24 14:53:00
9:33 AM,61.0,59.0,93,30.26,5.0,SW,4.6,-,N/A,,Overcast,220,2013-01-24 15:33:00
9:53 AM,62.1,59.0,90,30.24,7.0,SW,8.1,-,N/A,,Overcast,220,2013-01-24 15:53:00
10:15 AM,64.0,59.0,84,30.26,9.0,SSW,9.2,-,N/A,,Mostly Cloudy,210,2013-01-24 16:15:00
10:40 AM,66.0,59.0,78,30.26,10.0,SW,11.5,-,N/A,,Partly Cloudy,220,2013-01-24 16:40:00
10:53 AM,66.9,59.0,76,30.23,10.0,SSW,11.5,-,N/A,,Clear,210,2013-01-24 16:53:00
11:53 AM,71.1,59.0,66,30.20,10.0,SSW,10.4,-,N/A,,Clear,200,2013-01-24 17:53:00
12:53 PM,75.9,57.0,52,30.17,10.0,SW,9.2,-,N/A,,Clear,220,2013-01-24 18:53:00
1:53 PM,78.1,54.0,43,30.13,10.0,SSW,10.4,18.4,N/A,,Clear,200,2013-01-24 19:53:00
2:53 PM,81.0,53.1,38,30.10,10.0,SW,10.4,-,N/A,,Clear,220,2013-01-24 20:53:00
3:53 PM,81.0,53.1,38,30.09,10.0,South,10.4,-,N/A,,Clear,190,2013-01-24 21:53:00
4:53 PM,79.0,52.0,39,30.08,10.0,South,11.5,18.4,N/A,,Clear,170,2013-01-24 22:53:00
5:53 PM,73.9,55.9,53,30.09,10.0,SSE,9.2,-,N/A,,Clear,150,2013-01-24 23:53:00
6:53 PM,70.0,55.0,59,30.10,7.0,SSE,9.2,-,N/A,,Clear,160,2013-01-25 00:53:00
7:53 PM,66.9,55.9,68,30.11,10.0,South,6.9,-,N/A,,Clear,170,2013-01-25 01:53:00
8:53 PM,64.9,55.9,73,30.12,10.0,South,8.1,-,N/A,,Clear,180,2013-01-25 02:53:00
9:53 PM,63.0,55.9,78,30.12,10.0,South,4.6,-,N/A,,Clear,180,2013-01-25 03:53:00
10:53 PM,62.1,55.9,80,30.11,10.0,South,5.8,-,N/A,,Clear,170,2013-01-25 04:53:00
11:53 PM,63.0,55.9,78,30.11,10.0,South,9.2,-,N/A,,Clear,170,2013-01-25 05:53:00